Terminal Aerodrome Forecast
Issued by NWS Hastings, NE

Home | Current Version | Previous Version | Text Only | Print | Product List | Glossary On
Versions: 1 2 3 4 5 6 7 8 9 10 11 12 13 14 15 16 17 18 19 20 21 22 23 24 25 26 27 28 29 30 31 32 33 34 35 36 37 38 39 40 41 42 43 44 45 46 47 48 49 50
000
FTUS43 KGID 220531
TAFGRI
TAF
KGRI 220531Z 2206/2306 18013KT P6SM BKN008
      TEMPO 2206/2210 5SM -RA BR OVC006
     FM221000 24011KT 5SM BR OVC009
     FM221300 28013KT 6SM BR OVC010
     FM221600 31017G23KT P6SM OVC020
     FM230100 31015KT P6SM OVC010=

USA.gov is the U.S. government's official web portal to all federal, state and local government web resources and services.